• In Russia
  • List of Countries
  • For 7 days
  • Water Temperature
  • Satellite Maps
  • Weather Map
  • Weather Widgets
  • user-avatar
    Login

    Hourly Weather Burdukovo

    Today, 26 April, Friday

    Time Temperature Precipitation Wind Pressure Humidity
    00:00 +6°C° 0 mm 2 mps 715 mmHg 42%
    01:00 +5°C° 0 mm 2 mps 714 mmHg 43%
    02:00 +5°C° 0 mm 2 mps 714 mmHg 44%
    03:00 +5°C° 0 mm 2 mps 714 mmHg 45%
    04:00 +5°C° 0 mm 2 mps 713 mmHg 47%
    05:00 +6°C° 0 mm 2 mps 713 mmHg 46%
    06:00 +7°C° 0 mm 3 mps 713 mmHg 45%
    07:00 +9°C° 0 mm 3 mps 713 mmHg 44%
    08:00 +9°C° 0.2 mm 3 mps 712 mmHg 46%
    09:00 +10°C° 0.2 mm 3 mps 712 mmHg 48%
    10:00 +10°C° 0.2 mm 3 mps 712 mmHg 50%
    11:00 +11°C° 0.1 mm 3 mps 712 mmHg 46%
    12:00 +13°C° 0.1 mm 3 mps 712 mmHg 42%
    13:00 +14°C° 0.1 mm 3 mps 712 mmHg 39%
    14:00 +14°C° 0 mm 3 mps 712 mmHg 41%
    15:00 +13°C° 0 mm 4 mps 713 mmHg 43%
    16:00 +12°C° 0 mm 4 mps 713 mmHg 45%
    17:00 +11°C° 0 mm 3 mps 713 mmHg 50%
    18:00 +10°C° 0 mm 2 mps 714 mmHg 54%
    19:00 +10°C° 0 mm 1 mps 714 mmHg 58%
    20:00 +9°C° 0 mm 1 mps 715 mmHg 64%
    21:00 +8°C° 0 mm 1 mps 715 mmHg 69%
    22:00 +7°C° 0 mm 1 mps 716 mmHg 75%
    23:00 +6°C° 0 mm 1 mps 716 mmHg 77%

    Tomorrow, 27 April, Saturday

    Time Temperature Precipitation Wind Pressure Humidity
    00:00 +6°C° 0 mm 1 mps 716 mmHg 80%
    01:00 +5°C° 0 mm 1 mps 716 mmHg 82%
    02:00 +5°C° 0 mm 1 mps 716 mmHg 82%
    03:00 +5°C° 0 mm 1 mps 716 mmHg 83%
    04:00 +4°C° 0 mm 1 mps 717 mmHg 83%
    05:00 +6°C° 0 mm 1 mps 717 mmHg 73%
    06:00 +8°C° 0 mm 1 mps 717 mmHg 64%
    07:00 +10°C° 0 mm 1 mps 717 mmHg 54%
    08:00 +13°C° 0 mm 1 mps 717 mmHg 46%
    09:00 +15°C° 0 mm 1 mps 717 mmHg 37%
    10:00 +18°C° 0 mm 1 mps 716 mmHg 29%
    11:00 +18°C° 0 mm 2 mps 716 mmHg 27%
    12:00 +19°C° 0 mm 2 mps 715 mmHg 24%
    13:00 +19°C° 0 mm 2 mps 715 mmHg 22%
    14:00 +19°C° 0 mm 2 mps 714 mmHg 22%
    15:00 +19°C° 0 mm 2 mps 714 mmHg 22%
    16:00 +19°C° 0 mm 3 mps 713 mmHg 23%
    17:00 +17°C° 0 mm 2 mps 713 mmHg 29%
    18:00 +15°C° 0 mm 1 mps 713 mmHg 35%
    19:00 +13°C° 0 mm 1 mps 712 mmHg 41%
    20:00 +13°C° 0 mm 1 mps 713 mmHg 43%
    21:00 +12°C° 0 mm 1 mps 713 mmHg 44%
    22:00 +11°C° 0 mm 1 mps 713 mmHg 46%
    23:00 +11°C° 0.1 mm 1 mps 713 mmHg 50%

    Day after tomorrow, 28 April, Sunday

    Time Temperature Precipitation Wind Pressure Humidity
    00:00 +11°C° 0.1 mm 1 mps 713 mmHg 54%
    01:00 +10°C° 0.1 mm 1 mps 713 mmHg 58%
    02:00 +9°C° 0 mm 1 mps 713 mmHg 62%
    03:00 +8°C° 0 mm 1 mps 713 mmHg 65%
    04:00 +7°C° 0 mm 1 mps 712 mmHg 68%
    05:00 +9°C° 0 mm 1 mps 712 mmHg 62%
    06:00 +11°C° 0 mm 1 mps 713 mmHg 55%
    07:00 +12°C° 0 mm 1 mps 713 mmHg 49%
    08:00 +14°C° 0 mm 1 mps 713 mmHg 43%
    09:00 +16°C° 0 mm 2 mps 713 mmHg 36%
    10:00 +18°C° 0 mm 2 mps 712 mmHg 30%
    11:00 +18°C° 0 mm 3 mps 712 mmHg 28%
    12:00 +19°C° 0 mm 3 mps 712 mmHg 26%
    13:00 +19°C° 0 mm 3 mps 711 mmHg 24%
    14:00 +19°C° 0 mm 3 mps 711 mmHg 26%
    15:00 +18°C° 0 mm 4 mps 710 mmHg 28%
    16:00 +18°C° 0 mm 4 mps 710 mmHg 29%
    17:00 +14°C° 0.1 mm 4 mps 710 mmHg 39%
    18:00 +12°C° 0.1 mm 5 mps 711 mmHg 49%
    19:00 +9°C° 0.1 mm 5 mps 711 mmHg 59%
    20:00 +7°C° 0.5 mm 5 mps 712 mmHg 65%
    21:00 +5°C° 0.5 mm 6 mps 713 mmHg 70%
    22:00 +3°C° 0.5 mm 6 mps 715 mmHg 76%
    23:00 +2°C° 0.1 mm 6 mps 716 mmHg 74%

    29 April, Monday

    Time Temperature Precipitation Wind Pressure Humidity
    00:00 +2°C° 0.1 mm 6 mps 717 mmHg 72%
    01:00 +1°C° 0.1 mm 5 mps 718 mmHg 70%
    02:00 +1°C° 0 mm 4 mps 718 mmHg 73%
    03:00 +1°C° 0 mm 3 mps 719 mmHg 76%
    04:00 +1°C° 0 mm 2 mps 719 mmHg 79%
    05:00 +1°C° 0 mm 3 mps 719 mmHg 70%
    06:00 +1°C° 0 mm 4 mps 720 mmHg 61%
    07:00 +3°C° 0 mm 5 mps 720 mmHg 51%
    08:00 +4°C° 0 mm 6 mps 720 mmHg 46%
    09:00 +5°C° 0 mm 6 mps 720 mmHg 41%
    10:00 +8°C° 0 mm 6 mps 720 mmHg 37%
    11:00 +9°C° 0 mm 6 mps 720 mmHg 34%
    12:00 +10°C° 0 mm 6 mps 719 mmHg 32%
    13:00 +11°C° 0 mm 7 mps 719 mmHg 30%
    14:00 +11°C° 0 mm 6 mps 718 mmHg 30%
    15:00 +13°C° 0 mm 6 mps 718 mmHg 29%
    16:00 +13°C° 0 mm 5 mps 717 mmHg 29%
    17:00 +12°C° 0 mm 4 mps 717 mmHg 33%
    18:00 +10°C° 0 mm 3 mps 717 mmHg 37%
    19:00 +10°C° 0 mm 1 mps 717 mmHg 42%
    20:00 +9°C° 0 mm 1 mps 717 mmHg 44%
    21:00 +8°C° 0 mm 1 mps 717 mmHg 47%
    22:00 +6°C° 0 mm 0 mps 718 mmHg 49%
    23:00 +5°C° 0 mm 0 mps 717 mmHg 50%

    30 April, Tuesday

    Time Temperature Precipitation Wind Pressure Humidity
    00:00 +6°C° 0 mm 1 mps 717 mmHg 52%
    01:00 +5°C° 0 mm 1 mps 717 mmHg 53%
    02:00 +5°C° 0 mm 1 mps 716 mmHg 54%
    03:00 +5°C° 0 mm 1 mps 716 mmHg 54%
    04:00 +4°C° 0 mm 1 mps 715 mmHg 55%
    05:00 +6°C° 0 mm 1 mps 715 mmHg 49%
    06:00 +8°C° 0 mm 1 mps 715 mmHg 43%
    07:00 +10°C° 0 mm 1 mps 715 mmHg 37%
    08:00 +13°C° 0 mm 1 mps 714 mmHg 32%
    09:00 +15°C° 0 mm 1 mps 714 mmHg 27%
    10:00 +18°C° 0 mm 2 mps 714 mmHg 22%
    11:00 +19°C° 0 mm 2 mps 713 mmHg 20%
    12:00 +20°C° 0 mm 3 mps 713 mmHg 19%
    13:00 +21°C° 0 mm 3 mps 712 mmHg 17%
    14:00 +20°C° 0 mm 4 mps 712 mmHg 17%
    15:00 +20°C° 0 mm 4 mps 712 mmHg 17%
    16:00 +20°C° 0 mm 5 mps 712 mmHg 17%
    17:00 +18°C° 0 mm 4 mps 712 mmHg 22%
    18:00 +16°C° 0 mm 3 mps 712 mmHg 28%
    19:00 +14°C° 0 mm 2 mps 712 mmHg 33%
    20:00 +13°C° 0 mm 1 mps 713 mmHg 36%
    21:00 +12°C° 0 mm 1 mps 713 mmHg 39%
    22:00 +11°C° 0 mm 1 mps 714 mmHg 42%
    23:00 +10°C° 0 mm 1 mps 714 mmHg 45%

    1 May, Wednesday

    Time Temperature Precipitation Wind Pressure Humidity
    00:00 +9°C° 0 mm 0 mps 714 mmHg 47%
    01:00 +8°C° 0 mm 0 mps 714 mmHg 50%
    02:00 +8°C° 0 mm 0 mps 715 mmHg 52%
    03:00 +8°C° 0 mm 0 mps 715 mmHg 54%
    04:00 +8°C° 0 mm 1 mps 715 mmHg 57%
    05:00 +10°C° 0 mm 1 mps 715 mmHg 51%
    06:00 +12°C° 0 mm 1 mps 715 mmHg 46%
    07:00 +14°C° 0 mm 1 mps 715 mmHg 41%
    08:00 +16°C° 0 mm 2 mps 715 mmHg 36%
    09:00 +19°C° 0 mm 3 mps 715 mmHg 32%
    10:00 +21°C° 0 mm 4 mps 714 mmHg 28%
    11:00 +22°C° 0 mm 5 mps 714 mmHg 25%
    12:00 +23°C° 0 mm 5 mps 713 mmHg 22%
    13:00 +25°C° 0 mm 5 mps 712 mmHg 19%
    14:00 +25°C° 0 mm 5 mps 712 mmHg 18%
    15:00 +26°C° 0 mm 5 mps 711 mmHg 17%
    16:00 +26°C° 0 mm 5 mps 711 mmHg 15%
    17:00 +23°C° 0 mm 4 mps 710 mmHg 18%
    18:00 +21°C° 0 mm 3 mps 710 mmHg 20%
    19:00 +19°C° 0 mm 2 mps 709 mmHg 23%
    20:00 +18°C° 0 mm 2 mps 709 mmHg 25%
    21:00 +17°C° 0 mm 2 mps 709 mmHg 26%
    22:00 +16°C° 0 mm 2 mps 709 mmHg 28%
    23:00 +15°C° 0 mm 2 mps 709 mmHg 30%
    Show more